Weather History for KDOV - May, 2014

Change the Weather History Date:

Wednesday, May 14, 2014

  Actual Average Record
Temperature  
Mean Temperature 59 °F -  
Max Temperature 62 °F 75 °F 93 °F (1956)
Min Temperature 56 °F 53 °F 39 °F (2013)
Degree Days  
Heating Degree Days 6    
Growing Degree Days 9 (Base 50)    
Moisture  
Dew Point 60 °F    
Average Humidity 100    
Maximum Humidity 100    
Minimum Humidity 100    
Precipitation  
Precipitation 0.00 in - - ()
Sea Level Pressure  
Sea Level Pressure 30.18 in    
Wind  
Wind Speed 10 mph (East)    
Max Wind Speed 14 mph    
Max Gust Speed -    
Visibility 2 miles    
Events Fog    
Averages and records for this station are not official NWS values.
T = Trace of Precipitation, MM = Missing Value Source: NWS Daily Summary

Daily Weather History Graph

Daily Weather History Graph

Search for Another Location

Airport or City:

Trip Planner

Search our weather history database for the weather conditions in past years. The results will help you decide how hot, cold, wet, or windy it might be!

Date:

Astronomy

May. 14, 2014 Rise Set
Actual Time 5:49 AM EDT 8:07 PM EDT
Civil Twilight 5:19 AM EDT 8:37 PM EDT
Nautical Twilight 4:42 AM EDT 9:14 PM EDT
Astronomical Twilight 4:02 AM EDT 9:55 PM EDT
Moon 8:10 PM EDT (5/14) 5:46 AM EDT (5/14)
Length of Visible Light 15h 17m
Length of Day
14h 17m
Full, 100% of the Moon is Illuminated
May 14
Full
May 14
Full
May 21
Last Quarter
May 28
New
Jun 5
First Quarter

Hourly Weather History & Observations

Time (EDT) Temp. Dew Point Humidity Pressure Visibility Wind Dir Wind Speed Gust Speed Precip Events Conditions
12:43 AM 57.2 °F 57.2 °F 100% 30.20 in 3.0 mi NE 12.7 mph - N/A   Overcast
12:48 AM 57.2 °F 57.2 °F 100% 30.19 in 2.5 mi ENE 11.5 mph - N/A   Overcast
12:58 AM 56.5 °F 56.5 °F 100% 30.20 in 2.5 mi ENE 10.4 mph - N/A   Overcast
1:58 AM 56.7 °F 56.7 °F 100% 30.19 in 2.0 mi ENE 10.4 mph - N/A   Mostly Cloudy
2:03 AM 57.2 °F 57.2 °F 100% 30.18 in 2.0 mi ENE 10.4 mph - N/A   Mostly Cloudy
2:13 AM 57.2 °F 57.2 °F 100% 30.17 in 2.5 mi ENE 9.2 mph - N/A   Mostly Cloudy
2:18 AM 57.2 °F 57.2 °F 100% 30.17 in 2.5 mi ENE 12.7 mph - N/A   Overcast
2:58 AM 56.5 °F 56.5 °F 100% 30.17 in 2.5 mi ENE 12.7 mph - N/A   Overcast
3:23 AM 57.2 °F 57.2 °F 100% 30.16 in 3.0 mi ENE 12.7 mph - N/A   Overcast
3:28 AM 57.2 °F 57.2 °F 100% 30.16 in 3.0 mi ENE 10.4 mph - N/A   Overcast
3:58 AM 56.3 °F 56.3 °F 100% 30.18 in 3.0 mi ENE 10.4 mph - N/A   Overcast
4:58 AM 56.3 °F 56.3 °F 100% 30.18 in 4.0 mi ENE 9.2 mph - N/A   Overcast
5:48 AM 57.2 °F 57.2 °F 100% 30.18 in 3.0 mi NE 6.9 mph - N/A   Overcast
5:53 AM 57.2 °F 57.2 °F 100% 30.18 in 2.5 mi ENE 10.4 mph - N/A   Overcast
5:58 AM 56.5 °F 56.5 °F 100% 30.19 in 2.0 mi ENE 8.1 mph - N/A   Overcast
6:08 AM 57.2 °F 57.2 °F 100% 30.19 in 2.0 mi ENE 8.1 mph - N/A   Overcast
6:23 AM 57.2 °F 57.2 °F 100% 30.19 in 3.0 mi ENE 8.1 mph - N/A   Overcast
6:33 AM 57.2 °F 57.2 °F 100% 30.20 in 3.0 mi NE 8.1 mph - N/A   Overcast
6:38 AM 57.2 °F 57.2 °F 100% 30.20 in 2.5 mi ENE 8.1 mph - N/A   Overcast
6:48 AM 57.2 °F 57.2 °F 100% 30.20 in 3.0 mi NE 8.1 mph - N/A   Overcast
6:58 AM 57.0 °F 57.0 °F 100% 30.21 in 3.0 mi ENE 8.1 mph - N/A   Overcast
7:58 AM 57.2 °F 57.2 °F 100% 30.22 in 3.0 mi ENE 11.5 mph - N/A   Overcast
8:58 AM 56.7 °F 56.7 °F 100% 30.24 in 3.0 mi NE 6.9 mph - N/A   Overcast
9:08 AM 57.2 °F 57.2 °F 100% 30.23 in 2.5 mi NE 6.9 mph - N/A   Overcast
9:23 AM 57.2 °F 57.2 °F 100% 30.23 in 3.0 mi NE 6.9 mph - N/A   Overcast
9:58 AM 56.8 °F 56.8 °F 100% 30.25 in 3.0 mi NE 8.1 mph - N/A   Overcast
10:28 AM 57.2 °F 57.2 °F 100% 30.24 in 2.5 mi NE 10.4 mph - N/A   Overcast
10:38 AM 57.2 °F 57.2 °F 100% 30.24 in 2.5 mi NE 8.1 mph - N/A   Overcast
10:58 AM 57.7 °F 57.7 °F 100% 30.25 in 2.0 mi NE 6.9 mph - N/A   Overcast
11:08 AM 57.2 °F 57.2 °F 100% 30.24 in 3.0 mi NE 6.9 mph - N/A   Overcast
11:28 AM 59.0 °F 59.0 °F 100% 30.24 in 4.0 mi ENE 11.5 mph - N/A   Overcast
11:58 AM 58.8 °F 58.8 °F 100% 30.24 in 4.0 mi ENE 12.7 mph - N/A   Overcast
12:53 PM 60.8 °F 60.8 °F 100% 30.21 in 9.0 mi ENE 9.2 mph - N/A   Overcast
12:58 PM 60.4 °F 60.4 °F 100% 30.22 in 9.0 mi ENE 10.4 mph - N/A   Overcast
1:48 PM 60.8 °F 60.8 °F 100% 30.20 in 6.0 mi East 10.4 mph - N/A   Overcast
1:58 PM 61.9 °F 61.9 °F 100% 30.21 in 8.0 mi East 9.2 mph - N/A   Overcast
2:58 PM 62.6 °F 62.6 °F 100% 30.20 in 6.0 mi East 10.4 mph - N/A   Overcast
3:43 PM 62.6 °F 62.6 °F 100% 30.18 in 4.0 mi East 10.4 mph - N/A   Overcast
3:58 PM 62.4 °F 62.4 °F 100% 30.18 in 3.0 mi ESE 9.2 mph - N/A   Overcast
4:08 PM 62.6 °F 62.6 °F 100% 30.17 in 5.0 mi East 10.4 mph - N/A   Overcast
4:23 PM 62.6 °F 62.6 °F 100% 30.16 in 5.0 mi East 10.4 mph - N/A   Overcast
4:58 PM 62.8 °F 62.8 °F 100% 30.17 in 2.5 mi ESE 6.9 mph - N/A   Overcast
5:13 PM 62.6 °F 62.6 °F 100% 30.16 in 1.8 mi ESE 6.9 mph - N/A   Overcast
5:28 PM 62.6 °F 62.6 °F 100% 30.16 in 1.5 mi ESE 8.1 mph - N/A   Overcast
5:58 PM 62.4 °F 62.4 °F 100% 30.17 in 1.5 mi ESE 5.8 mph - N/A   Overcast
6:33 PM 62.6 °F 62.6 °F 100% 30.16 in 1.2 mi ESE 8.1 mph - N/A   Overcast
6:38 PM 62.6 °F 62.6 °F 100% 30.16 in 1.5 mi ESE 8.1 mph - N/A   Overcast
6:53 PM 62.6 °F 62.6 °F 100% 30.16 in 1.5 mi East 8.1 mph - N/A   Overcast
6:58 PM 61.7 °F 61.7 °F 100% 30.17 in 1.5 mi East 6.9 mph - N/A   Overcast
7:13 PM 60.8 °F 60.8 °F 100% 30.16 in 1.2 mi ESE 5.8 mph - N/A   Overcast
7:28 PM 60.8 °F 60.8 °F 100% 30.16 in 1.5 mi ESE 4.6 mph - N/A   Mostly Cloudy
7:58 PM 60.8 °F 60.8 °F 100% 30.16 in 1.5 mi East 10.4 mph - N/A   Overcast
8:08 PM 60.8 °F 60.8 °F 100% 30.15 in 1.2 mi East 8.1 mph - N/A   Overcast
8:18 PM 60.8 °F 60.8 °F 100% 30.15 in 1.5 mi East 8.1 mph - N/A   Mostly Cloudy
8:23 PM 60.8 °F 60.8 °F 100% 30.14 in 2.0 mi East 8.1 mph - N/A   Mostly Cloudy
8:28 PM 60.8 °F 60.8 °F 100% 30.14 in 1.8 mi East 8.1 mph - N/A   Scattered Clouds
8:38 PM 60.8 °F 60.8 °F 100% 30.14 in 1.8 mi East 9.2 mph - N/A   Partly Cloudy
8:43 PM 60.8 °F 60.8 °F 100% 30.14 in 1.8 mi East 8.1 mph - N/A   Partly Cloudy
8:58 PM 60.8 °F 60.8 °F 100% 30.15 in 1.8 mi East 6.9 mph - N/A   Overcast
9:03 PM 60.8 °F 60.8 °F 100% 30.14 in 1.8 mi East 9.2 mph - N/A   Overcast
9:08 PM 60.8 °F 60.8 °F 100% 30.14 in 2.0 mi East 9.2 mph - N/A   Overcast
9:23 PM 62.6 °F 62.6 °F 100% 30.14 in 1.8 mi East 11.5 mph - N/A   Overcast
9:33 PM 62.6 °F 62.6 °F 100% 30.15 in 1.2 mi East 11.5 mph - N/A   Overcast
9:38 PM 62.6 °F 62.6 °F 100% 30.15 in 1.0 mi East 10.4 mph - N/A   Mist
9:53 PM 60.8 °F 60.8 °F 100% 30.15 in 0.8 mi East 11.5 mph - N/A   Mist
9:58 PM 61.5 °F 61.5 °F 100% 30.16 in 0.8 mi East 12.7 mph - N/A   Mist
10:03 PM 60.8 °F 60.8 °F 100% 30.15 in 0.5 mi East 11.5 mph - N/A Fog Fog
10:08 PM 60.8 °F 60.8 °F 100% 30.15 in 0.5 mi East 12.7 mph - N/A Fog Fog
10:18 PM 60.8 °F 60.8 °F 100% 30.15 in 0.5 mi East 13.8 mph - N/A Fog Fog
10:23 PM 60.8 °F 60.8 °F 100% 30.15 in 0.5 mi East 12.7 mph - N/A Fog Fog
10:58 PM 60.8 °F 60.8 °F 100% 30.16 in 0.5 mi ESE 9.2 mph - N/A Fog Fog
11:28 PM 60.8 °F 60.8 °F 100% 30.15 in 0.5 mi East 9.2 mph - N/A Fog Fog
11:43 PM 60.8 °F 60.8 °F 100% 30.15 in 0.8 mi ESE 5.8 mph - N/A   Mist
11:48 PM 60.8 °F 60.8 °F 100% 30.15 in 0.8 mi East 6.9 mph - N/A   Mist
11:58 PM 60.3 °F 60.3 °F 100% 30.16 in 1.0 mi ESE 8.1 mph - N/A   Mist